When you browse on this site, cookies collect data to enhance your experience and personalize the content and advertising you see.
Visit our Privacy Policy to learn more. By continuing to use the site, you agree to this use of cookies and data.
  • In Hungary
  • List of Countries
  • For 7 days
  • Water Temperature
  • Satellite Maps
  • Weather Map
  • News
  • Weather Widgets
  • user-avatar
    Login

    Hourly Weather Achi

    Today, 21 November, Wednesday

    Time Temperature Precipitation Wind Pressure Humidity
    00:00 -5°C° 0 mm 4 mps 754 mmHg 89%
    01:00 -5°C° 0.1 mm 4 mps 753 mmHg 88%
    02:00 -6°C° 0.1 mm 5 mps 753 mmHg 88%
    03:00 -6°C° 0 mm 5 mps 752 mmHg 88%
    04:00 -6°C° 0.1 mm 5 mps 751 mmHg 88%
    05:00 -6°C° 0.1 mm 5 mps 751 mmHg 87%
    06:00 -6°C° 0.1 mm 6 mps 750 mmHg 87%
    07:00 -6°C° 0.2 mm 6 mps 750 mmHg 86%
    08:00 -6°C° 0.2 mm 6 mps 749 mmHg 85%
    09:00 -6°C° 0 mm 6 mps 748 mmHg 84%
    10:00 -6°C° 0.1 mm 6 mps 748 mmHg 84%
    11:00 -5°C° 0.1 mm 6 mps 747 mmHg 84%
    12:00 -5°C° 0.1 mm 6 mps 747 mmHg 84%
    13:00 -5°C° 0.1 mm 6 mps 747 mmHg 84%
    14:00 -4°C° 0.1 mm 6 mps 747 mmHg 85%
    15:00 -4°C° 0.1 mm 6 mps 746 mmHg 85%
    16:00 -5°C° 0 mm 6 mps 747 mmHg 82%
    17:00 -5°C° 0 mm 6 mps 747 mmHg 79%
    18:00 -6°C° 0 mm 6 mps 747 mmHg 76%
    19:00 -6°C° 0 mm 6 mps 747 mmHg 77%
    20:00 -8°C° 0 mm 6 mps 747 mmHg 78%
    21:00 -8°C° 0 mm 6 mps 747 mmHg 78%
    22:00 -9°C° 0 mm 6 mps 748 mmHg 80%
    23:00 -8°C° 0 mm 5 mps 748 mmHg 82%

    Tomorrow, 22 November, Thursday

    Time Temperature Precipitation Wind Pressure Humidity
    00:00 -10°C° 0 mm 5 mps 748 mmHg 84%
    01:00 -10°C° 0 mm 5 mps 748 mmHg 86%
    02:00 -10°C° 0 mm 5 mps 748 mmHg 87%
    03:00 -10°C° 0 mm 5 mps 748 mmHg 88%
    04:00 -10°C° 0 mm 5 mps 747 mmHg 89%
    05:00 -10°C° 0 mm 5 mps 747 mmHg 90%
    06:00 -9°C° 0 mm 4 mps 747 mmHg 91%
    07:00 -10°C° 0 mm 5 mps 747 mmHg 90%
    08:00 -8°C° 0 mm 5 mps 746 mmHg 89%
    09:00 -8°C° 0 mm 5 mps 746 mmHg 87%
    10:00 -9°C° 0.2 mm 6 mps 745 mmHg 87%
    11:00 -8°C° 0.2 mm 6 mps 745 mmHg 86%
    12:00 -8°C° 0.2 mm 7 mps 744 mmHg 86%
    13:00 -8°C° 0.4 mm 7 mps 743 mmHg 86%
    14:00 -8°C° 0.4 mm 8 mps 742 mmHg 87%
    15:00 -7°C° 0.4 mm 8 mps 742 mmHg 87%
    16:00 -7°C° 0.4 mm 8 mps 741 mmHg 88%
    17:00 -8°C° 0.4 mm 7 mps 740 mmHg 89%
    18:00 -8°C° 0.4 mm 7 mps 740 mmHg 89%
    19:00 -8°C° 0.3 mm 7 mps 739 mmHg 90%
    20:00 -8°C° 0.3 mm 6 mps 738 mmHg 90%
    21:00 -8°C° 0.3 mm 6 mps 737 mmHg 91%
    22:00 -6°C° 0.5 mm 6 mps 737 mmHg 92%
    23:00 -6°C° 0.5 mm 6 mps 736 mmHg 92%

    Day after tomorrow, 23 November, Friday

    Time Temperature Precipitation Wind Pressure Humidity
    00:00 -6°C° 0.5 mm 6 mps 736 mmHg 93%
    01:00 -8°C° 0.4 mm 7 mps 736 mmHg 86%
    02:00 -10°C° 0.4 mm 8 mps 736 mmHg 79%
    03:00 -11°C° 0.4 mm 9 mps 736 mmHg 73%
    04:00 -12°C° 0 mm 8 mps 737 mmHg 76%
    05:00 -13°C° 0 mm 8 mps 738 mmHg 79%
    06:00 -14°C° 0 mm 7 mps 739 mmHg 83%
    07:00 -15°C° 0 mm 8 mps 739 mmHg 82%
    08:00 -15°C° 0 mm 8 mps 740 mmHg 81%
    09:00 -15°C° 0 mm 9 mps 741 mmHg 80%
    10:00 -14°C° 0.1 mm 9 mps 742 mmHg 77%
    11:00 -14°C° 0.1 mm 10 mps 743 mmHg 73%
    12:00 -13°C° 0.1 mm 10 mps 744 mmHg 69%
    13:00 -14°C° 0 mm 10 mps 745 mmHg 71%
    14:00 -14°C° 0 mm 9 mps 746 mmHg 73%
    15:00 -14°C° 0 mm 9 mps 747 mmHg 75%
    16:00 -13°C° 0 mm 8 mps 748 mmHg 78%
    17:00 -13°C° 0 mm 7 mps 749 mmHg 81%
    18:00 -14°C° 0 mm 7 mps 750 mmHg 83%
    19:00 -14°C° 0 mm 6 mps 751 mmHg 85%
    20:00 -14°C° 0 mm 6 mps 752 mmHg 86%
    21:00 -14°C° 0 mm 5 mps 752 mmHg 88%
    22:00 -14°C° 0 mm 5 mps 753 mmHg 89%
    23:00 -14°C° 0 mm 4 mps 753 mmHg 90%

    24 November, Saturday

    Time Temperature Precipitation Wind Pressure Humidity
    00:00 -15°C° 0 mm 4 mps 754 mmHg 91%
    01:00 -14°C° 0 mm 4 mps 754 mmHg 91%
    02:00 -14°C° 0 mm 4 mps 754 mmHg 91%
    03:00 -12°C° 0 mm 4 mps 754 mmHg 91%
    04:00 -12°C° 0 mm 4 mps 754 mmHg 91%
    05:00 -12°C° 0 mm 4 mps 754 mmHg 90%
    06:00 -13°C° 0 mm 5 mps 754 mmHg 90%
    07:00 -13°C° 0 mm 5 mps 754 mmHg 90%
    08:00 -12°C° 0 mm 5 mps 754 mmHg 89%
    09:00 -12°C° 0 mm 6 mps 754 mmHg 89%
    10:00 -11°C° 0 mm 6 mps 753 mmHg 88%
    11:00 -11°C° 0 mm 7 mps 753 mmHg 87%
    12:00 -9°C° 0 mm 7 mps 752 mmHg 85%
    13:00 -9°C° 0 mm 7 mps 752 mmHg 85%
    14:00 -9°C° 0 mm 7 mps 752 mmHg 85%
    15:00 -8°C° 0 mm 7 mps 752 mmHg 85%
    16:00 -8°C° 0.1 mm 7 mps 751 mmHg 85%
    17:00 -8°C° 0.1 mm 7 mps 751 mmHg 85%
    18:00 -8°C° 0.1 mm 7 mps 751 mmHg 85%
    19:00 -7°C° 0 mm 7 mps 751 mmHg 85%
    20:00 -7°C° 0 mm 7 mps 751 mmHg 86%
    21:00 -7°C° 0 mm 7 mps 751 mmHg 86%
    22:00 -7°C° 0 mm 7 mps 750 mmHg 86%
    23:00 -7°C° 0 mm 7 mps 750 mmHg 86%

    25 November, Sunday

    Time Temperature Precipitation Wind Pressure Humidity
    00:00 -7°C° 0 mm 7 mps 750 mmHg 86%
    01:00 -7°C° 0 mm 7 mps 750 mmHg 86%
    02:00 -7°C° 0 mm 7 mps 750 mmHg 86%
    03:00 -7°C° 0 mm 7 mps 750 mmHg 86%
    04:00 -7°C° 0.1 mm 7 mps 750 mmHg 87%
    05:00 -7°C° 0.1 mm 7 mps 750 mmHg 87%
    06:00 -7°C° 0.1 mm 7 mps 749 mmHg 88%
    07:00 -6°C° 0.1 mm 7 mps 750 mmHg 87%
    08:00 -6°C° 0.1 mm 7 mps 750 mmHg 87%
    09:00 -6°C° 0.1 mm 7 mps 751 mmHg 87%
    10:00 -5°C° 0 mm 6 mps 751 mmHg 86%
    11:00 -5°C° 0 mm 6 mps 752 mmHg 85%
    12:00 -5°C° 0 mm 5 mps 752 mmHg 84%
    13:00 -6°C° 0 mm 5 mps 753 mmHg 86%
    14:00 -5°C° 0 mm 4 mps 753 mmHg 88%
    15:00 -6°C° 0 mm 3 mps 753 mmHg 91%
    16:00 -7°C° 0 mm 3 mps 754 mmHg 92%
    17:00 -8°C° 0 mm 3 mps 754 mmHg 93%
    18:00 -9°C° 0 mm 3 mps 754 mmHg 94%
    19:00 -9°C° 0 mm 3 mps 754 mmHg 94%
    20:00 -8°C° 0 mm 2 mps 754 mmHg 94%
    21:00 -8°C° 0 mm 2 mps 754 mmHg 94%
    22:00 -8°C° 0 mm 2 mps 754 mmHg 94%
    23:00 -8°C° 0 mm 2 mps 754 mmHg 95%

    26 November, Monday

    Time Temperature Precipitation Wind Pressure Humidity
    00:00 -8°C° 0 mm 2 mps 754 mmHg 95%
    01:00 -7°C° 0.1 mm 2 mps 753 mmHg 95%
    02:00 -7°C° 0.1 mm 2 mps 753 mmHg 96%
    03:00 -6°C° 0.1 mm 2 mps 752 mmHg 96%
    04:00 -6°C° 0.3 mm 2 mps 752 mmHg 96%
    05:00 -7°C° 0.3 mm 3 mps 751 mmHg 96%
    06:00 -6°C° 0.3 mm 3 mps 751 mmHg 96%
    07:00 -7°C° 0.5 mm 4 mps 750 mmHg 95%
    08:00 -7°C° 0.5 mm 4 mps 750 mmHg 94%
    09:00 -6°C° 0.5 mm 5 mps 749 mmHg 94%
    10:00 -6°C° 0.6 mm 5 mps 748 mmHg 93%
    11:00 -6°C° 0.6 mm 5 mps 748 mmHg 93%
    12:00 -5°C° 0.6 mm 5 mps 747 mmHg 93%
    13:00 -5°C° 0.6 mm 5 mps 746 mmHg 93%
    14:00 -5°C° 0.6 mm 5 mps 746 mmHg 93%
    15:00 -4°C° 0.6 mm 5 mps 745 mmHg 94%
    16:00 -4°C° 0.5 mm 5 mps 744 mmHg 94%
    17:00 -4°C° 0.5 mm 4 mps 744 mmHg 94%
    18:00 -4°C° 0.5 mm 4 mps 743 mmHg 94%
    19:00 -4°C° 0.3 mm 4 mps 743 mmHg 95%
    20:00 -4°C° 0.3 mm 4 mps 742 mmHg 95%
    21:00 -4°C° 0.3 mm 3 mps 742 mmHg 95%
    22:00 -4°C° 0.3 mm 3 mps 742 mmHg 96%
    23:00 -4°C° 0.3 mm 3 mps 741 mmHg 96%
    Show more